Stündliche Wetter Barra Bonita

Heute, 22 Oktober, Donnerstag

Zeit Temperatur Niederschläge Wind Luftdruck Luftfeuchtigkeit
00:00 +21°C° 0 mm 5 m/S 723 mmHg 78%
01:00 +21°C° 0 mm 5 m/S 723 mmHg 78%
02:00 +20°C° 0 mm 5 m/S 723 mmHg 78%
03:00 +20°C° 0 mm 5 m/S 722 mmHg 78%
04:00 +20°C° 0 mm 5 m/S 723 mmHg 79%
05:00 +20°C° 0 mm 5 m/S 723 mmHg 80%
06:00 +19°C° 0 mm 5 m/S 723 mmHg 81%
07:00 +21°C° 0 mm 5 m/S 723 mmHg 75%
08:00 +23°C° 0 mm 5 m/S 724 mmHg 68%
09:00 +26°C° 0 mm 5 m/S 724 mmHg 62%
10:00 +27°C° 0 mm 5 m/S 724 mmHg 57%
11:00 +29°C° 0 mm 4 m/S 724 mmHg 53%
12:00 +32°C° 0 mm 4 m/S 724 mmHg 49%
13:00 +32°C° 0 mm 4 m/S 723 mmHg 48%
14:00 +32°C° 0 mm 4 m/S 722 mmHg 47%
15:00 +33°C° 0 mm 4 m/S 721 mmHg 46%
16:00 +30°C° 0 mm 5 m/S 721 mmHg 52%
17:00 +29°C° 0 mm 5 m/S 721 mmHg 57%
18:00 +27°C° 0 mm 5 m/S 721 mmHg 62%
19:00 +26°C° 0 mm 6 m/S 722 mmHg 66%
20:00 +24°C° 0 mm 6 m/S 722 mmHg 69%
21:00 +22°C° 0 mm 6 m/S 723 mmHg 72%
22:00 +22°C° 0 mm 6 m/S 723 mmHg 73%
23:00 +21°C° 0 mm 6 m/S 723 mmHg 73%

Morgen, 23 Oktober, Freitag

Zeit Temperatur Niederschläge Wind Luftdruck Luftfeuchtigkeit
00:00 +21°C° 0 mm 6 m/S 723 mmHg 73%
01:00 +20°C° 0 mm 5 m/S 723 mmHg 74%
02:00 +20°C° 0 mm 5 m/S 722 mmHg 75%
03:00 +20°C° 0 mm 5 m/S 722 mmHg 76%
04:00 +20°C° 0 mm 4 m/S 722 mmHg 77%
05:00 +19°C° 0 mm 4 m/S 722 mmHg 77%
06:00 +19°C° 0 mm 4 m/S 723 mmHg 77%
07:00 +21°C° 0 mm 4 m/S 723 mmHg 72%
08:00 +23°C° 0 mm 4 m/S 723 mmHg 66%
09:00 +26°C° 0 mm 4 m/S 723 mmHg 60%
10:00 +27°C° 0 mm 4 m/S 723 mmHg 57%
11:00 +29°C° 0 mm 4 m/S 723 mmHg 54%
12:00 +32°C° 0 mm 4 m/S 722 mmHg 50%
13:00 +32°C° 0 mm 4 m/S 722 mmHg 50%
14:00 +32°C° 0 mm 4 m/S 721 mmHg 49%
15:00 +32°C° 0 mm 4 m/S 720 mmHg 49%
16:00 +30°C° 0.3 mm 3 m/S 720 mmHg 55%
17:00 +28°C° 0.3 mm 3 m/S 720 mmHg 62%
18:00 +27°C° 0.3 mm 3 m/S 720 mmHg 68%
19:00 +26°C° 0.1 mm 3 m/S 720 mmHg 71%
20:00 +25°C° 0.1 mm 3 m/S 720 mmHg 74%
21:00 +24°C° 0.1 mm 3 m/S 721 mmHg 77%
22:00 +22°C° 0.1 mm 3 m/S 721 mmHg 78%
23:00 +22°C° 0.1 mm 3 m/S 721 mmHg 78%

übermorgen, 24 Oktober, Samstag

Zeit Temperatur Niederschläge Wind Luftdruck Luftfeuchtigkeit
00:00 +22°C° 0.1 mm 3 m/S 721 mmHg 78%
01:00 +21°C° 0.1 mm 3 m/S 721 mmHg 80%
02:00 +21°C° 0.1 mm 3 m/S 720 mmHg 81%
03:00 +21°C° 0.1 mm 2 m/S 720 mmHg 82%
04:00 +20°C° 1.4 mm 2 m/S 720 mmHg 85%
05:00 +20°C° 1.4 mm 2 m/S 720 mmHg 89%
06:00 +20°C° 1.4 mm 2 m/S 720 mmHg 92%
07:00 +21°C° 0.8 mm 2 m/S 721 mmHg 92%
08:00 +21°C° 0.8 mm 3 m/S 721 mmHg 92%
09:00 +21°C° 0.8 mm 3 m/S 721 mmHg 91%
10:00 +21°C° 2.5 mm 3 m/S 721 mmHg 91%
11:00 +21°C° 2.5 mm 3 m/S 721 mmHg 92%
12:00 +22°C° 2.5 mm 4 m/S 721 mmHg 92%
13:00 +21°C° 1.3 mm 3 m/S 720 mmHg 92%
14:00 +21°C° 1.3 mm 3 m/S 720 mmHg 92%
15:00 +21°C° 1.3 mm 2 m/S 719 mmHg 92%
16:00 +21°C° 0.3 mm 2 m/S 719 mmHg 92%
17:00 +21°C° 0.3 mm 2 m/S 719 mmHg 92%
18:00 +22°C° 0.3 mm 1 m/S 718 mmHg 91%
19:00 +21°C° 0 mm 2 m/S 719 mmHg 92%
20:00 +21°C° 0 mm 2 m/S 719 mmHg 92%
21:00 +21°C° 0 mm 3 m/S 719 mmHg 93%
22:00 +20°C° 0 mm 2 m/S 719 mmHg 94%
23:00 +20°C° 0 mm 2 m/S 719 mmHg 95%

, 25 Oktober, Sonntag

Zeit Temperatur Niederschläge Wind Luftdruck Luftfeuchtigkeit
00:00 +20°C° 0 mm 1 m/S 718 mmHg 96%
01:00 +19°C° 0 mm 2 m/S 718 mmHg 95%
02:00 +19°C° 0 mm 2 m/S 718 mmHg 95%
03:00 +19°C° 0 mm 2 m/S 717 mmHg 95%
04:00 +19°C° 0 mm 2 m/S 717 mmHg 95%
05:00 +19°C° 0 mm 2 m/S 718 mmHg 95%
06:00 +19°C° 0 mm 2 m/S 718 mmHg 95%
07:00 +21°C° 0 mm 2 m/S 718 mmHg 88%
08:00 +24°C° 0 mm 3 m/S 718 mmHg 82%
09:00 +25°C° 0 mm 3 m/S 719 mmHg 76%
10:00 +27°C° 0 mm 2 m/S 718 mmHg 69%
11:00 +29°C° 0 mm 1 m/S 718 mmHg 63%
12:00 +30°C° 0 mm 1 m/S 718 mmHg 57%
13:00 +30°C° 0.3 mm 1 m/S 717 mmHg 57%
14:00 +30°C° 0.3 mm 1 m/S 717 mmHg 57%
15:00 +30°C° 0.3 mm 1 m/S 716 mmHg 58%
16:00 +29°C° 0.4 mm 2 m/S 716 mmHg 65%
17:00 +27°C° 0.4 mm 2 m/S 717 mmHg 72%
18:00 +26°C° 0.4 mm 2 m/S 717 mmHg 79%
19:00 +25°C° 0 mm 2 m/S 717 mmHg 82%
20:00 +24°C° 0 mm 3 m/S 717 mmHg 85%
21:00 +22°C° 0 mm 3 m/S 718 mmHg 88%
22:00 +21°C° 0 mm 3 m/S 717 mmHg 89%
23:00 +21°C° 0 mm 3 m/S 717 mmHg 89%

25 Oktober, Sonntag

Zeit Temperatur Niederschläge Wind Luftdruck Luftfeuchtigkeit
00:00 +20°C° 0 mm 1 m/S 718 mmHg 96%
01:00 +19°C° 0 mm 2 m/S 718 mmHg 95%
02:00 +19°C° 0 mm 2 m/S 718 mmHg 95%
03:00 +19°C° 0 mm 2 m/S 717 mmHg 95%
04:00 +19°C° 0 mm 2 m/S 717 mmHg 95%
05:00 +19°C° 0 mm 2 m/S 718 mmHg 95%
06:00 +19°C° 0 mm 2 m/S 718 mmHg 95%
07:00 +21°C° 0 mm 2 m/S 718 mmHg 88%
08:00 +24°C° 0 mm 3 m/S 718 mmHg 82%
09:00 +25°C° 0 mm 3 m/S 719 mmHg 76%
10:00 +27°C° 0 mm 2 m/S 718 mmHg 69%
11:00 +29°C° 0 mm 1 m/S 718 mmHg 63%
12:00 +30°C° 0 mm 1 m/S 718 mmHg 57%
13:00 +30°C° 0.3 mm 1 m/S 717 mmHg 57%
14:00 +30°C° 0.3 mm 1 m/S 717 mmHg 57%
15:00 +30°C° 0.3 mm 1 m/S 716 mmHg 58%
16:00 +29°C° 0.4 mm 2 m/S 716 mmHg 65%
17:00 +27°C° 0.4 mm 2 m/S 717 mmHg 72%
18:00 +26°C° 0.4 mm 2 m/S 717 mmHg 79%
19:00 +25°C° 0 mm 2 m/S 717 mmHg 82%
20:00 +24°C° 0 mm 3 m/S 717 mmHg 85%
21:00 +22°C° 0 mm 3 m/S 718 mmHg 88%
22:00 +21°C° 0 mm 3 m/S 717 mmHg 89%
23:00 +21°C° 0 mm 3 m/S 717 mmHg 89%

26 Oktober, Montag

Zeit Temperatur Niederschläge Wind Luftdruck Luftfeuchtigkeit
00:00 +20°C° 0 mm 3 m/S 717 mmHg 90%
01:00 +20°C° 0 mm 2 m/S 717 mmHg 91%
02:00 +20°C° 0 mm 2 m/S 717 mmHg 92%
03:00 +19°C° 0 mm 2 m/S 717 mmHg 93%
04:00 +19°C° 0 mm 2 m/S 717 mmHg 94%
05:00 +19°C° 0 mm 2 m/S 717 mmHg 94%
06:00 +19°C° 0 mm 2 m/S 717 mmHg 94%
07:00 +21°C° 0 mm 3 m/S 717 mmHg 87%
08:00 +22°C° 0 mm 3 m/S 718 mmHg 81%
09:00 +25°C° 0 mm 3 m/S 718 mmHg 74%
10:00 +28°C° 0 mm 2 m/S 718 mmHg 65%
11:00 +30°C° 0 mm 2 m/S 718 mmHg 56%
12:00 +33°C° 0 mm 1 m/S 718 mmHg 48%
13:00 +32°C° 0 mm 1 m/S 717 mmHg 46%
14:00 +32°C° 0 mm 2 m/S 717 mmHg 45%
15:00 +32°C° 0 mm 2 m/S 716 mmHg 44%
16:00 +31°C° 0 mm 2 m/S 716 mmHg 50%
17:00 +30°C° 0 mm 2 m/S 716 mmHg 56%
18:00 +28°C° 0 mm 1 m/S 715 mmHg 62%
19:00 +27°C° 0 mm 1 m/S 716 mmHg 65%
20:00 +26°C° 0 mm 1 m/S 716 mmHg 68%
21:00 +25°C° 0 mm 1 m/S 716 mmHg 71%
22:00 +25°C° 0 mm 1 m/S 716 mmHg 72%
23:00 +25°C° 0 mm 1 m/S 716 mmHg 74%

27 Oktober, Dienstag

Zeit Temperatur Niederschläge Wind Luftdruck Luftfeuchtigkeit
00:00 +25°C° 0 mm 1 m/S 716 mmHg 75%
01:00 +24°C° 0.1 mm 1 m/S 716 mmHg 78%
02:00 +23°C° 0.1 mm 1 m/S 716 mmHg 82%
03:00 +23°C° 0.1 mm 1 m/S 715 mmHg 85%
04:00 +23°C° 0 mm 1 m/S 715 mmHg 87%
05:00 +22°C° 0 mm 1 m/S 716 mmHg 88%
06:00 +22°C° 0 mm 1 m/S 716 mmHg 90%
07:00 +24°C° 0 mm 1 m/S 716 mmHg 81%
08:00 +26°C° 0 mm 2 m/S 717 mmHg 73%
09:00 +28°C° 0 mm 2 m/S 717 mmHg 65%
10:00 +29°C° 0.1 mm 3 m/S 717 mmHg 62%
11:00 +30°C° 0.1 mm 3 m/S 716 mmHg 58%
12:00 +31°C° 0.1 mm 3 m/S 716 mmHg 55%
13:00 +31°C° 0 mm 3 m/S 715 mmHg 53%
14:00 +33°C° 0 mm 3 m/S 715 mmHg 52%
15:00 +33°C° 0 mm 3 m/S 714 mmHg 51%
16:00 +31°C° 0 mm 2 m/S 714 mmHg 55%
17:00 +30°C° 0 mm 2 m/S 714 mmHg 59%
18:00 +29°C° 0 mm 1 m/S 714 mmHg 63%
19:00 +28°C° 0 mm 1 m/S 714 mmHg 66%
20:00 +27°C° 0 mm 1 m/S 715 mmHg 69%
21:00 +25°C° 0 mm 1 m/S 715 mmHg 72%
22:00 +25°C° 0 mm 1 m/S 715 mmHg 76%
23:00 +24°C° 0 mm 1 m/S 715 mmHg 80%
Mehr zeigen